N8QF Weather Reports


time (UTC)temp
F
wind
direction
speed
knots
gust
knots
rain 1hr
in
rain 24hr
in
rain mn
in
humidity
%
barometer
mb
20260508004745 54 0 0.0 0.0 0.00 0.00 0.00 52 1013.2
20260508004244 55 0 0.0 0.0 0.00 0.00 0.00 49 1013.2
20260508003744 56 249 0.0 0.9 0.00 0.00 0.00 47 1013.2
20260508003243 56 224 0.0 1.7 0.00 0.00 0.00 44 1013.2
20260508002743 56 222 0.9 1.7 0.00 0.00 0.00 43 1013.1
20260508002242 57 246 1.7 3.5 0.00 0.00 0.00 43 1013.0
20260508001742 57 228 2.6 5.2 0.00 0.00 0.00 42 1013.0
20260508001241 57 231 2.6 6.1 0.00 0.00 0.00 41 1013.0
20260508000741 57 219 2.6 3.5 0.00 0.00 0.00 41 1013.1
20260508000242 57 228 2.6 5.2 0.00 0.00 0.00 40 1013.0
20260507235239 58 229 3.5 6.1 0.00 0.00 0.00 41 1013.0
20260507234738 58 222 2.6 7.0 0.00 0.00 0.00 40 1013.1
20260507234238 58 224 2.6 7.8 0.00 0.00 0.00 41 1013.0
20260507233737 58 302 2.6 7.8 0.00 0.00 0.00 39 1013.0
20260507233237 59 278 3.5 7.8 0.00 0.00 0.00 40 1013.0
20260507232736 59 210 3.5 7.8 0.00 0.00 0.00 40 1012.9
20260507232236 59 269 3.5 8.7 0.00 0.00 0.00 38 1012.9
20260507231737 59 262 2.6 7.0 0.00 0.00 0.00 38 1012.9
20260507231236 59 291 1.7 3.5 0.00 0.00 0.00 40 1012.9
20260507230735 59 267 0.9 4.3 0.00 0.00 0.00 39 1012.9
20260507230235 60 284 2.6 5.2 0.00 0.00 0.00 38 1012.9
20260507225735 60 228 2.6 7.0 0.00 0.00 0.00 38 1012.9
20260507225235 61 235 1.7 5.2 0.00 0.00 0.00 37 1012.8
20260507224735 60 243 0.9 5.2 0.00 0.00 0.00 37 1012.8
20260507224234 60 315 2.6 6.1 0.00 0.00 0.00 37 1012.8
20260507223734 60 340 1.7 6.1 0.00 0.00 0.00 41 1012.8
20260507223234 60 338 0.9 2.6 0.00 0.00 0.00 38 1012.8
20260507222731 61 17 1.7 5.2 0.00 0.00 0.00 39 1012.9
20260507222231 61 305 1.7 4.3 0.00 0.00 0.00 37 1013.0
20260507221731 60 307 1.7 4.3 0.00 0.00 0.00 39 1013.1
20260507221227 60 281 1.7 5.2 0.00 0.00 0.00 39 1013.1
20260507220727 59 335 3.5 8.7 0.00 0.00 0.00 39 1013.1
20260507220226 59 288 2.6 6.1 0.00 0.00 0.00 38 1013.2
20260507215725 60 284 3.5 9.6 0.00 0.00 0.00 39 1013.2
20260507215224 60 274 2.6 7.0 0.00 0.00 0.00 38 1013.2
20260507214724 60 266 1.7 5.2 0.00 0.00 0.00 37 1013.2
20260507214223 60 307 2.6 7.0 0.00 0.00 0.00 37 1013.2
20260507213723 60 278 4.3 9.6 0.00 0.00 0.00 42 1013.2
20260507213223 59 343 4.3 8.7 0.00 0.00 0.00 38 1013.2
20260507212722 59 260 2.6 6.1 0.00 0.00 0.00 39 1013.2
20260507211721 60 277 4.3 8.7 0.00 0.00 0.00 36 1013.2
20260507211220 61 226 4.3 9.6 0.00 0.00 0.00 40 1013.2
20260507210720 61 278 3.5 9.6 0.00 0.00 0.00 41 1013.2
20260507210219 60 342 3.5 9.6 0.00 0.00 0.00 44 1013.2
20260507205719 59 342 2.6 4.3 0.00 0.00 0.00 42 1013.2
20260507205218 59 257 4.3 8.7 0.00 0.00 0.00 38 1013.2
20260507204718 60 291 2.6 7.8 0.00 0.00 0.00 40 1013.1
20260507204218 60 285 5.2 10.4 0.00 0.00 0.00 39 1013.1
20260507203717 60 298 6.1 11.3 0.00 0.00 0.00 38 1013.1
20260507203217 60 256 4.3 9.6 0.00 0.00 0.00 39 1013.0
20260507202717 60 308 3.5 8.7 0.00 0.00 0.00 40 1013.1
20260507202216 60 273 6.1 10.4 0.00 0.00 0.00 40 1013.2
20260507201716 60 326 5.2 10.4 0.00 0.00 0.00 41 1013.2
20260507201216 60 316 3.5 7.0 0.00 0.00 0.00 41 1013.1
20260507200715 60 13 5.2 11.3 0.00 0.00 0.00 42 1013.2
20260507200215 60 333 4.3 10.4 0.00 0.00 0.00 45 1013.1
20260507195715 60 293 1.7 7.0 0.00 0.00 0.00 40 1013.2
20260507195215 60 322 3.5 8.7 0.00 0.00 0.00 38 1013.3
20260507194715 60 322 5.2 12.2 0.00 0.00 0.00 40 1013.4
20260507194214 60 326 5.2 9.6 0.00 0.00 0.00 44 1013.4
20260507193714 60 307 3.5 6.1 0.00 0.00 0.00 42 1013.5
20260507193214 60 273 4.3 11.3 0.00 0.00 0.00 45 1013.5
20260507192714 59 11 5.2 9.6 0.00 0.00 0.00 43 1013.4
20260507192213 59 294 4.3 11.3 0.00 0.00 0.00 41 1013.4
20260507191712 59 315 4.3 9.6 0.00 0.00 0.00 44 1013.3
20260507191210 59 336 5.2 10.4 0.00 0.00 0.00 41 1013.5
20260507190708 60 328 4.3 10.4 0.00 0.00 0.00 46 1013.4
20260507190208 59 330 5.2 10.4 0.00 0.00 0.00 44 1013.5
20260507185708 59 319 5.2 9.6 0.00 0.00 0.00 41 1013.6
20260507185208 59 315 6.1 10.4 0.00 0.00 0.00 45 1013.6
20260507184708 59 326 5.2 8.7 0.00 0.00 0.00 41 1013.6
20260507184207 58 319 4.3 8.7 0.00 0.00 0.00 47 1013.4
20260507183706 58 318 5.2 12.2 0.00 0.00 0.00 48 1013.8
20260507183205 58 329 6.1 11.3 0.00 0.00 0.00 43 1013.8
20260507182705 59 338 4.3 10.4 0.00 0.00 0.00 43 1013.7
20260507182205 58 293 5.2 8.7 0.00 0.00 0.00 49 1013.7
20260507181705 58 314 5.2 13.0 0.00 0.00 0.00 48 1013.8
20260507181204 58 325 6.1 11.3 0.00 0.00 0.00 41 1013.6
20260507180704 58 307 4.3 9.6 0.00 0.00 0.00 44 1013.9
20260507180204 58 13 5.2 9.6 0.00 0.00 0.00 45 1013.9
20260507175704 58 325 5.2 10.4 0.00 0.00 0.00 47 1013.9
20260507175204 58 332 4.3 9.6 0.00 0.00 0.00 48 1014.0
20260507174703 57 284 5.2 12.2 0.00 0.00 0.00 47 1014.0
20260507174203 57 266 5.2 9.6 0.00 0.00 0.00 45 1014.0
20260507173703 56 323 6.1 12.2 0.00 0.00 0.00 43 1014.1
20260507173203 57 295 6.1 13.9 0.00 0.00 0.00 45 1014.2
20260507172702 57 340 5.2 13.0 0.00 0.00 0.00 47 1014.2
20260507172202 57 326 4.3 10.4 0.00 0.00 0.00 47 1014.3
20260507171701 56 315 5.2 7.8 0.00 0.00 0.00 43 1014.4
20260507171201 56 274 5.2 10.4 0.00 0.00 0.00 45 1014.4
20260507170700 56 301 6.1 12.2 0.00 0.00 0.00 44 1014.5
20260507170200 57 314 5.2 12.2 0.00 0.00 0.00 44 1014.6
20260507165700 56 301 5.2 12.2 0.00 0.00 0.00 43 1014.6
20260507165200 57 271 4.3 12.2 0.00 0.00 0.00 41 1014.6
20260507164659 56 295 6.1 12.2 0.00 0.00 0.00 44 1014.6
20260507164159 57 316 3.5 9.6 0.00 0.00 0.00 49 1014.6
20260507163658 57 304 3.5 7.8 0.00 0.00 0.00 49 1014.7
20260507163158 56 287 4.3 12.2 0.00 0.00 0.00 50 1014.7
20260507162658 56 212 5.2 10.4 0.00 0.00 0.00 52 1014.7
20260507162158 55 271 4.3 9.6 0.00 0.00 0.00 49 1014.8
20260507161658 56 290 3.5 7.0 0.00 0.00 0.00 49 1014.8
20260507161157 55 281 4.3 7.8 0.00 0.00 0.00 48 1014.8
20260507160657 55 287 3.5 7.8 0.00 0.00 0.00 48 1014.8
20260507160155 55 228 3.5 8.7 0.00 0.00 0.00 50 1014.8
20260507155655 55 225 4.3 11.3 0.00 0.00 0.00 46 1014.9
20260507155155 55 238 4.3 11.3 0.00 0.00 0.00 49 1014.8
20260507154655 54 301 5.2 11.3 0.00 0.00 0.00 48 1014.9
20260507154154 55 298 4.3 10.4 0.00 0.00 0.00 46 1014.8
20260507153654 55 225 4.3 11.3 0.00 0.00 0.00 44 1014.8
20260507153154 54 277 1.7 4.3 0.00 0.00 0.00 46 1014.7
20260507152654 54 290 4.3 8.7 0.00 0.00 0.00 45 1014.7
20260507152154 54 1 4.3 11.3 0.00 0.00 0.00 46 1014.6
20260507151653 54 315 2.6 7.0 0.00 0.00 0.00 46 1014.6
20260507151152 54 255 4.3 8.7 0.00 0.00 0.00 51 1014.6
20260507150652 54 215 4.3 9.6 0.00 0.00 0.00 48 1014.6
20260507150150 53 318 5.2 8.7 0.00 0.00 0.00 48 1014.5
20260507145650 53 236 4.3 8.7 0.00 0.00 0.00 46 1014.6
20260507145150 53 294 4.3 9.6 0.00 0.00 0.00 48 1014.6
20260507144649 53 233 4.3 8.7 0.00 0.00 0.00 47 1014.6
20260507144149 53 280 4.3 8.7 0.00 0.00 0.00 50 1014.6
20260507143649 53 340 4.3 7.8 0.00 0.00 0.00 49 1014.5
20260507143149 52 276 4.3 9.6 0.00 0.00 0.00 47 1014.6
20260507142648 53 316 2.6 7.0 0.00 0.00 0.00 49 1014.6
20260507142148 53 274 4.3 8.7 0.00 0.00 0.00 48 1014.6
20260507141648 53 295 2.6 5.2 0.00 0.00 0.00 52 1014.6
20260507141148 52 314 3.5 7.0 0.00 0.00 0.00 51 1014.7
20260507140648 52 274 4.3 8.7 0.00 0.00 0.00 49 1014.7
20260507140145 52 295 3.5 7.0 0.00 0.00 0.00 50 1014.7
20260507135645 51 335 3.5 7.0 0.00 0.00 0.00 50 1014.7
20260507135145 51 307 3.5 9.6 0.00 0.00 0.00 50 1014.7
20260507134645 51 315 4.3 8.7 0.00 0.00 0.00 46 1014.7
20260507134145 52 290 3.5 11.3 0.00 0.00 0.00 49 1014.6
20260507133137 51 274 3.5 7.0 0.00 0.00 0.00 53 1014.7
20260507132637 51 319 2.6 7.0 0.00 0.00 0.00 54 1014.7
20260507132136 51 297 2.6 5.2 0.00 0.00 0.00 54 1014.7
20260507131636 50 309 2.6 5.2 0.00 0.00 0.00 56 1014.7
20260507131136 50 326 2.6 7.0 0.00 0.00 0.00 58 1014.7
20260507130636 50 291 3.5 7.8 0.00 0.00 0.00 60 1014.7
20260507130135 50 300 3.5 8.7 0.00 0.00 0.00 58 1014.7
20260507125633 49 305 0.9 5.2 0.00 0.00 0.00 62 1014.7
20260507125132 49 300 0.9 3.5 0.00 0.00 0.00 67 1014.7
20260507124631 48 226 0.0 1.7 0.00 0.00 0.00 68 1014.7
20260507124133 48 0 0.0 0.0 0.00 0.00 0.00 69 1014.7
20260507123128 47 0 0.0 0.0 0.00 0.00 0.00 76 1014.8
20260507122628 47 0 0.0 0.0 0.00 0.00 0.00 79 1014.8
20260507122127 46 0 0.0 0.0 0.00 0.00 0.00 81 1014.8
20260507121625 45 0 0.0 0.0 0.00 0.00 0.00 84 1014.7
20260507121122 45 269 0.0 1.7 0.00 0.00 0.00 86 1014.7
20260507120621 44 262 0.0 1.7 0.00 0.00 0.00 88 1014.6
20260507120121 43 288 0.9 2.6 0.00 0.00 0.00 90 1014.7
20260507115621 43 238 0.0 0.9 0.00 0.00 0.00 92 1014.7
20260507115116 42 267 0.0 0.9 0.00 0.00 0.00 93 1014.7
20260507114615 42 195 0.0 0.9 0.00 0.00 0.00 94 1014.8
20260507114115 41 0 0.0 0.0 0.00 0.00 0.00 94 1014.8
20260507113615 41 304 0.0 0.9 0.00 0.00 0.00 94 1014.8
20260507113113 40 0 0.0 0.0 0.00 0.00 0.00 95 1014.7
20260507112613 40 0 0.0 0.0 0.00 0.00 0.00 94 1014.6
20260507112111 40 0 0.0 0.0 0.00 0.00 0.00 95 1014.5
20260507111611 39 0 0.0 0.0 0.00 0.00 0.00 95 1014.5
20260507111111 39 13 0.0 1.7 0.00 0.00 0.00 95 1014.4
20260507110609 39 13 0.9 1.7 0.00 0.00 0.00 95 1014.4
20260507110108 39 0 0.0 0.0 0.00 0.00 0.00 95 1014.3
20260507105608 39 0 0.0 0.0 0.00 0.00 0.00 95 1014.2
20260507105152 39 0 0.0 0.0 0.00 0.00 0.00 95 1014.2
20260507105107 39 0 0.0 0.0 0.00 0.00 0.00 95 1014.2
20260507104606 39 0 0.0 0.0 0.00 0.00 0.00 95 1014.2
20260507104105 39 0 0.0 0.0 0.00 0.00 0.00 95 1014.1
20260507103605 39 0 0.0 0.0 0.00 0.00 0.00 95 1014.1
20260507103104 39 3 0.9 1.7 0.00 0.00 0.00 95 1014.1
20260507102102 39 7 1.7 1.7 0.00 0.00 0.00 95 1014.2
20260507101602 39 14 0.0 1.7 0.00 0.00 0.00 95 1014.1
20260507100559 40 0 0.0 0.0 0.00 0.00 0.00 94 1014.1
20260507100058 40 0 0.0 0.0 0.00 0.00 0.00 95 1014.1
20260507095557 40 0 0.0 0.0 0.00 0.00 0.00 95 1014.1
20260507095056 40 0 0.0 0.0 0.00 0.00 0.00 95 1014.2
20260507094555 40 0 0.0 0.0 0.00 0.00 0.00 95 1014.1
20260507094055 40 0 0.0 0.0 0.00 0.00 0.00 95 1014.0
20260507093554 40 0 0.0 0.0 0.00 0.00 0.00 94 1014.0
20260507093054 40 0 0.0 0.0 0.00 0.00 0.00 94 1014.0
20260507092554 40 0 0.0 0.0 0.00 0.00 0.00 94 1013.9
20260507092054 40 0 0.0 0.0 0.00 0.00 0.00 94 1013.9
20260507091551 41 0 0.0 0.0 0.00 0.00 0.00 94 1013.8
20260507091051 41 0 0.0 0.0 0.00 0.00 0.00 94 1013.8
20260507090550 41 0 0.0 0.0 0.00 0.00 0.00 94 1013.8
20260507090050 41 0 0.0 0.0 0.00 0.00 0.00 94 1013.8
20260507085548 41 0 0.0 0.0 0.00 0.00 0.00 94 1013.7
20260507085048 41 0 0.0 0.0 0.00 0.00 0.00 94 1013.8
20260507084546 41 0 0.0 0.0 0.00 0.00 0.00 94 1013.7
20260507084046 41 0 0.0 0.0 0.00 0.00 0.00 94 1013.6
20260507083546 41 0 0.0 0.0 0.00 0.00 0.00 94 1013.7
20260507083045 41 0 0.0 0.0 0.00 0.00 0.00 94 1013.7
20260507082545 41 0 0.0 0.0 0.00 0.00 0.00 94 1013.6
20260507082045 41 0 0.0 0.0 0.00 0.00 0.00 94 1013.5
20260507081544 41 18 0.0 0.9 0.00 0.00 0.00 94 1013.6
20260507081043 41 23 0.0 1.7 0.00 0.00 0.00 94 1013.6
20260507080543 42 24 0.0 1.7 0.00 0.00 0.00 94 1013.6
20260507080043 42 0 0.0 0.0 0.00 0.00 0.00 94 1013.6
20260507075542 41 0 0.0 0.0 0.00 0.00 0.00 94 1013.6
20260507075041 41 356 0.0 0.9 0.00 0.00 0.00 94 1013.6
20260507074541 41 14 0.9 2.6 0.00 0.00 0.00 94 1013.6
20260507074041 42 20 0.0 1.7 0.00 0.00 0.00 94 1013.6
20260507073540 42 0 0.0 0.0 0.00 0.00 0.00 94 1013.6
20260507072539 42 0 0.0 0.0 0.00 0.00 0.00 94 1013.6
20260507072039 43 0 0.0 0.0 0.00 0.00 0.00 94 1013.6
20260507071538 43 0 0.0 0.0 0.00 0.00 0.00 93 1013.7
20260507071037 43 0 0.0 0.0 0.00 0.00 0.00 94 1013.6
20260507070537 43 0 0.0 0.0 0.00 0.00 0.00 93 1013.6
20260507070036 43 0 0.0 0.0 0.00 0.00 0.00 93 1013.7
20260507065536 43 0 0.0 0.0 0.00 0.00 0.00 93 1013.7
20260507065036 44 0 0.0 0.0 0.00 0.00 0.00 93 1013.7
20260507064536 44 0 0.0 0.0 0.00 0.00 0.00 93 1013.8
20260507064035 44 0 0.0 0.0 0.00 0.00 0.00 93 1013.8
20260507063534 44 0 0.0 0.0 0.00 0.00 0.00 93 1013.8
20260507063034 44 0 0.0 0.0 0.00 0.00 0.00 93 1013.8
20260507062531 44 0 0.0 0.0 0.00 0.00 0.00 93 1013.7
20260507062030 45 0 0.0 0.0 0.00 0.00 0.00 93 1013.8
20260507061028 45 0 0.0 0.0 0.00 0.00 0.00 92 1013.8
20260507060527 45 0 0.0 0.0 0.00 0.00 0.00 92 1013.8
20260507060027 45 0 0.0 0.0 0.00 0.00 0.00 92 1013.8
20260507055527 45 0 0.0 0.0 0.00 0.00 0.00 92 1013.8
20260507055027 45 0 0.0 0.0 0.00 0.00 0.00 92 1013.8
20260507054526 45 0 0.0 0.0 0.00 0.00 0.00 92 1013.9
20260507054026 45 0 0.0 0.0 0.00 0.00 0.00 92 1013.9
20260507053525 45 0 0.0 0.0 0.00 0.00 0.00 92 1013.8
20260507053024 45 0 0.0 0.0 0.00 0.00 0.00 91 1013.8
20260507052524 46 0 0.0 0.0 0.00 0.00 0.00 91 1013.8
20260507052024 46 0 0.0 0.0 0.00 0.00 0.00 91 1013.9
20260507051523 46 0 0.0 0.0 0.00 0.00 0.00 91 1014.0
20260507051023 46 0 0.0 0.0 0.00 0.00 0.00 91 1014.0
20260507050523 46 0 0.0 0.0 0.00 0.00 0.00 91 1014.1
20260507050023 46 0 0.0 0.0 0.00 0.00 0.00 91 1014.1
20260507045521 46 0 0.0 0.0 0.00 0.00 0.00 91 1014.1
20260507045021 46 38 0.0 1.7 0.00 0.00 0.00 91 1014.0
20260507044520 46 17 0.9 2.6 0.00 0.00 0.00 91 1013.9
20260507044020 46 323 0.9 1.7 0.00 0.00 0.00 91 1013.9
20260507043519 46 10 0.9 1.7 0.00 0.00 0.00 91 1013.8
20260507043018 46 0 0.0 0.0 0.00 0.00 0.00 91 1013.9
20260507042518 47 8 0.9 1.7 0.00 0.00 0.00 91 1013.9
20260507042018 47 10 1.7 1.7 0.00 0.00 0.00 91 1013.9
20260507041518 47 13 0.9 1.7 0.00 0.00 0.00 91 1013.8
20260507041017 47 7 0.9 1.7 0.00 0.00 0.00 91 1013.8
20260507040517 46 4 1.7 2.6 0.00 0.00 0.00 91 1013.7
20260507040017 46 14 0.9 1.7 0.00 0.00 0.47 90 1013.8
20260507035517 47 11 0.9 1.7 0.00 0.00 0.47 90 1013.8
20260507034516 47 11 1.7 1.7 0.00 0.00 0.47 89 1013.8
20260507034016 47 13 1.7 2.6 0.00 0.00 0.47 89 1013.7
20260507033014 47 14 0.9 2.6 0.00 0.00 0.47 88 1013.8
20260507032514 47 17 1.7 1.7 0.00 0.00 0.47 88 1013.8
20260507032017 47 10 0.9 2.6 0.00 0.00 0.47 88 1013.8
20260507031509 47 0 0.0 0.0 0.00 0.00 0.47 88 1013.8
20260507031009 48 0 0.0 0.0 0.00 0.00 0.47 87 1013.9
20260507030508 47 0 0.0 0.0 0.00 0.00 0.47 87 1013.9
20260507025506 48 0 0.0 0.0 0.00 0.00 0.47 86 1013.9
20260507025006 48 0 0.0 0.0 0.00 0.00 0.47 85 1013.9
20260507024505 48 15 0.9 1.7 0.00 0.00 0.47 85 1013.9
20260507023504 48 13 1.7 2.6 0.00 0.00 0.47 84 1013.9
20260507023004 49 7 0.9 1.7 0.00 0.00 0.47 84 1013.9
20260507022503 49 0 0.0 0.0 0.00 0.00 0.47 82 1013.9
20260507022003 49 24 0.0 0.9 0.00 0.00 0.47 81 1013.9
20260507021503 49 24 0.0 0.0 0.00 0.00 0.47 80 1013.8
20260507021002 50 0 0.0 0.0 0.00 0.00 0.47 79 1013.7
20260507020501 50 0 0.0 0.0 0.00 0.00 0.47 78 1013.6
20260507020000 50 0 0.0 0.0 0.00 0.00 0.47 78 1013.6
20260507015500 50 0 0.0 0.0 0.00 0.00 0.47 77 1013.5
20260507014959 50 0 0.0 0.0 0.00 0.00 0.47 77 1013.5
20260507014458 50 304 0.0 1.7 0.00 0.00 0.47 78 1013.4
20260507013958 50 347 0.0 1.7 0.00 0.00 0.47 79 1013.4
20260507013458 50 332 0.0 0.0 0.00 0.00 0.47 80 1013.3
20260507012957 50 180 0.0 2.6 0.00 0.00 0.47 80 1013.2
20260507012456 50 0 0.0 0.0 0.00 0.00 0.47 79 1013.2
20260507011956 51 0 0.0 0.0 0.00 0.00 0.47 78 1013.3
20260507011456 51 0 0.0 0.0 0.00 0.00 0.47 76 1013.2
20260507010954 51 0 0.0 0.0 0.00 0.00 0.47 75 1013.3
20260507010453 51 0 0.0 0.0 0.00 0.00 0.47 73 1013.2
20260507005453 52 0 0.0 0.0 0.00 0.00 0.47 69 1013.3
20260507004953 53 0 0.0 0.0 0.00 0.00 0.47 66 1013.2